[[{"header":{"parameterUnit":"m.s-1","parameterCategory":1,"la1":30.2991,"la2":30.254,"lo1":-89.0895,"lo2":-89.0444,"dy":0.0017,"dx":0.0017,"nx":28,"ny":28,"refTime":"2025-09-11T03:00:00:Z","depth":0,"parameterNumber":2,"parameterNumberName":"U-component_of_WINDS"},"data":[0,0,0,0,0,0,0,0,0,0,0,0,0,0,0,0,0,0,0,0,0,0,0,0,0,0,0,0,0,0,0,0,0,0,0,0,0,0,0,0,0,0,0,0,0,0,0,0,0,0,0,0,0,0,0,0,0,0,0.4041,0.4041,0,0.4052,0.4052,0.4052,0.4043,0.4042,0.4042,0.4042,0.4051,0.4052,0.4052,0,0,0,0,0,0,0,0,0,0,0,0,0,0.4011,0.4012,0.4041,0.4041,0.4041,0.4052,0.4052,0.4052,0.4043,0.4042,0.4042,0.4042,0.4051,0.4052,0.4052,0,0,0,0,0,0,0,0,0,0,0,0,0,0.4023,0.4012,0.4041,0.4038,0.4038,0.4052,0.4052,0.4052,0.4043,0.4042,0.4042,0.4041,0.4051,0.4052,0.4053,0.4069,0,0,0.4055,0.4056,0,0,0,0,0,0,0,0,0.4023,0.4024,0.4038,0.4038,0.4038,0.4045,0.4045,0.4058,0.4043,0.4041,0.4042,0.4041,0.405,0.4051,0.4054,0.407,0.407,0.4055,0.4056,0.4056,0.4057,0,0,0,0,0,0,0,0.4022,0.4024,0.4045,0.4038,0.4038,0.4036,0.4037,0.4047,0.4048,0.4041,0.404,0.4042,0.4049,0.4053,0.4054,0.407,0.4055,0.4056,0.4057,0.4057,0.41,0.4101,0,0,0,0,0,0,0.4022,0.4023,0.4045,0.4045,0.4029,0.4037,0.4038,0.4044,0.4048,0.4048,0.4042,0.4041,0.4052,0.4053,0.4054,0.4074,0.4056,0.4057,0.4058,0.41,0.41,0.4101,0,0,0,0,0,0,0.4021,0.4024,0.4044,0.4034,0.4037,0.4038,0.4044,0.4044,0.4047,0.4049,0.4049,0.4046,0.4051,0.4053,0.4066,0.4074,0.4058,0.4058,0.4099,0.41,0.4101,0.4113,0,0,0,0,0,0,0.402,0.4023,0.403,0.4034,0.4037,0.4056,0.4045,0.4045,0.4049,0.4048,0.4052,0.4052,0.4051,0.4064,0.4067,0.4075,0.4059,0.4098,0.4099,0.41,0.4112,0.4114,0.4116,0,0,0,0,0,0.4019,0.4033,0.403,0.4033,0.4046,0.4056,0.4058,0.4056,0.405,0.4056,0.4057,0.4052,0.4073,0.4066,0.4068,0.4077,0.4098,0.4099,0.41,0.4111,0.4113,0.4116,0,0,0,0,0,0,0.4028,0.4033,0.4031,0.4046,0.4051,0.4055,0.4063,0.4059,0.4066,0.4064,0.4062,0.4063,0.4076,0.4078,0.407,0.4093,0.4084,0.4086,0.4091,0.4094,0.4096,0.4095,0.406,0,0,0,0,0,0.4033,0.4041,0.4045,0.4058,0.4061,0.4062,0.4066,0.4065,0.4069,0.4071,0.4073,0.4077,0.4085,0.409,0.4097,0.4112,0.4113,0.4119,0.4122,0.4123,0.4125,0.4132,0.4135,0.4105,0.4105,0.4105,0,0,0.404,0.4044,0.405,0.406,0.4064,0.4072,0.4063,0.4073,0.4079,0.4072,0.4084,0.4086,0.4091,0.4105,0.4111,0.4107,0.4133,0.4125,0.4126,0.4127,0.4134,0.4137,0.4139,0.4106,0.4106,0.4106,0,0,0.4059,0.4064,0.4075,0.4079,0.4085,0.4085,0.4088,0.4092,0.4093,0.4106,0.4101,0.4108,0.4121,0.4124,0.4128,0.4149,0.4144,0.4151,0.4162,0.417,0.4172,0.4174,0.4181,0.4183,0.4153,0.4153,0.4153,0,0.4068,0.4082,0.4081,0.4091,0.4095,0.4091,0.4102,0.4106,0.4113,0.4116,0.4111,0.4127,0.413,0.4145,0.415,0.4153,0.4156,0.415,0.4172,0.4174,0.4176,0.4182,0.4185,0.4153,0.4153,0.4153,0.4153,0,0.4092,0.4101,0.411,0.4118,0.4123,0.4134,0.4134,0.414,0.4138,0.4139,0.4151,0.4155,0.4162,0.4166,0.4164,0.418,0.4177,0.4172,0.4163,0.4179,0.4185,0.4188,0.4154,0.4154,0.4154,0.4154,0,0,0.4116,0.4124,0.4127,0.413,0.4137,0.4143,0.4154,0.4162,0.4166,0.4172,0.418,0.4191,0.4187,0.4191,0.4189,0.4196,0.4212,0.419,0.4191,0.4193,0.4229,0.4232,0.4234,0.4209,0.421,0.421,0.4228,0,0.4134,0.4152,0.4152,0.4169,0.4177,0.4173,0.4182,0.4187,0.4188,0.4195,0.4196,0.4204,0.4198,0.42,0.4207,0.4208,0.4219,0.4207,0.4216,0.4216,0.4214,0.4238,0.4241,0.4257,0.423,0.4231,0.4231,0,0.4157,0.4164,0.4182,0.4187,0.4191,0.4199,0.4206,0.4213,0.4218,0.4218,0.4223,0.4221,0.4231,0.4223,0.4236,0.4228,0.4232,0.4233,0.4234,0.4233,0.4224,0.4237,0.4263,0.4265,0.4235,0.4235,0.4234,0,0.4171,0.4185,0.4198,0.4201,0.4208,0.4213,0.4216,0.4221,0.4226,0.4232,0.4235,0.4242,0.4246,0.4251,0.4251,0.4245,0.4264,0.4256,0.4264,0.4264,0.4267,0.4267,0.4293,0.4272,0.4272,0.4271,0.4271,0,0.4191,0.4202,0.4204,0.4211,0.4223,0.4223,0.4235,0.4237,0.4241,0.4249,0.4246,0.4253,0.4253,0.426,0.426,0.427,0.4272,0.4272,0.4272,0.4272,0.4272,0.4273,0.4272,0.4272,0.4272,0.4272,0.4272,0,0.4208,0.421,0.4223,0.4229,0.4231,0.4239,0.4244,0.425,0.4252,0.4261,0.4264,0.4266,0.4274,0.4274,0.4284,0.4284,0.4296,0.4295,0.4295,0.4294,0.4302,0.4301,0.4329,0.4332,0.431,0.431,0.431,0,0.422,0.4228,0.4235,0.424,0.4244,0.4252,0.4257,0.4257,0.4263,0.4269,0.4275,0.4283,0.4289,0.4303,0.4305,0.4312,0.431,0.4319,0.4311,0.4311,0.4309,0.4308,0.4308,0.4321,0.4321,0.4321,0.4321,0,0.424,0.4241,0.4249,0.4257,0.4263,0.4269,0.4275,0.4279,0.428,0.4286,0.4295,0.43,0.431,0.4317,0.4324,0.4327,0.4324,0.4324,0.4326,0.4326,0.4325,0.4324,0.4298,0.4323,0.4323,0.4323,0.4323,0.4323,0.4254,0.4261,0.4267,0.4276,0.4281,0.4286,0.4293,0.4296,0.4303,0.4311,0.4311,0.432,0.4325,0.4335,0.4338,0.4345,0.4342,0.4345,0.4345,0.4346,0.4346,0.4325,0.4346,0.4346,0.4346,0.4346,0.4346,0,0.4274,0.4278,0.4286,0.4294,0.4301,0.4299,0.4305,0.4311,0.4319,0.4324,0.4331,0.434,0.4348,0.4351,0.4359,0.4364,0.4362,0.4365,0.4364,0.4365,0.4349,0.4346,0.4366,0.4366,0.4366,0.4366,0.4366,0.4366,0.4284,0.4296,0.4298,0.4311,0.4315,0.4325,0.4328,0.4333,0.4338,0.4349,0.4355,0.4358,0.4362,0.437,0.4377,0.4377,0.438,0.4383,0.4383,0.4368,0.4366,0.4364,0.4361,0.4384,0.4384,0.4398,0.4398,0.4398]},{"header":{"parameterUnit":"m.s-1","parameterCategory":1,"la1":30.2991,"la2":30.254,"lo1":-89.0895,"lo2":-89.0444,"dy":0.0017,"dx":0.0017,"nx":28,"ny":28,"refTime":"2025-09-11T03:00:00:Z","depth":0,"parameterNumber":3,"parameterNumberName":"V-component_of_WINDS"},"data":[0,0,0,0,0,0,0,0,0,0,0,0,0,0,0,0,0,0,0,0,0,0,0,0,0,0,0,0,0,0,0,0,0,0,0,0,0,0,0,0,0,0,0,0,0,0,0,0,0,0,0,0,0,0,0,0,0,0,3.2915,3.2914,0,3.2801,3.2799,3.2798,3.2698,3.2697,3.2696,3.2695,3.257,3.2568,3.2566,0,0,0,0,0,0,0,0,0,0,0,0,0,3.3043,3.3041,3.2915,3.2914,3.2913,3.2801,3.2799,3.2798,3.2698,3.2697,3.2696,3.2694,3.2571,3.2568,3.2565,0,0,0,0,0,0,0,0,0,0,0,0,0,3.2963,3.304,3.2916,3.285,3.2843,3.2801,3.2799,3.2797,3.2699,3.2697,3.2695,3.2694,3.2572,3.2568,3.2565,3.2577,0,0,3.2554,3.2553,0,0,0,0,0,0,0,0,3.2968,3.2959,3.2861,3.2854,3.2846,3.2762,3.2798,3.2723,3.2699,3.2753,3.2695,3.2693,3.2635,3.2626,3.2608,3.2571,3.2566,3.2554,3.2552,3.2551,3.255,0,0,0,0,0,0,0,3.2974,3.2963,3.287,3.286,3.2851,3.2824,3.2811,3.2783,3.2704,3.2748,3.2741,3.2729,3.263,3.2612,3.2604,3.2564,3.2554,3.2551,3.2549,3.2548,3.2532,3.2533,0,0,0,0,0,0,3.299,3.2968,3.2873,3.2866,3.2905,3.2823,3.2808,3.2791,3.2705,3.269,3.2731,3.2725,3.2618,3.2608,3.2599,3.2608,3.2551,3.2547,3.2545,3.253,3.2532,3.2534,0,0,0,0,0,0,3.2993,3.2983,3.2878,3.2915,3.29,3.2823,3.2804,3.2789,3.277,3.2691,3.2676,3.2726,3.2616,3.2604,3.2584,3.2602,3.2546,3.2543,3.2528,3.2531,3.2533,3.2626,0,0,0,0,0,0,3.2997,3.2984,3.299,3.2916,3.2899,3.2867,3.2805,3.2788,3.2766,3.2757,3.2683,3.2669,3.2614,3.259,3.2581,3.2597,3.254,3.2526,3.2529,3.2532,3.2621,3.2631,3.264,0,0,0,0,0,3.3002,3.3019,3.299,3.298,3.2904,3.2868,3.2857,3.2796,3.2768,3.2771,3.272,3.2671,3.2602,3.2588,3.2577,3.2593,3.2524,3.2528,3.2532,3.2617,3.2629,3.264,0,0,0,0,0,0,3.3093,3.3008,3.2975,3.2969,3.2927,3.2851,3.2854,3.2811,3.2774,3.2768,3.2691,3.2675,3.2663,3.2625,3.2612,3.26,3.2557,3.2558,3.2625,3.2636,3.2646,3.2655,3.2537,0,0,0,0,0,3.3113,3.3094,3.3019,3.302,3.3001,3.2932,3.2914,3.2871,3.2822,3.2803,3.2751,3.2704,3.2672,3.2652,3.2618,3.2615,3.2597,3.262,3.263,3.2639,3.264,3.2636,3.2646,3.2546,3.2546,3.2546,0,0,3.3153,3.3104,3.3095,3.3038,3.3,3.2979,3.2917,3.2898,3.2881,3.2799,3.2778,3.2738,3.2681,3.267,3.2662,3.2638,3.2664,3.2643,3.2651,3.2648,3.2641,3.2651,3.2659,3.2548,3.2548,3.2547,0,0,3.3215,3.3177,3.3174,3.3138,3.3083,3.3036,3.3036,3.2967,3.2939,3.2916,3.2855,3.2833,3.2779,3.2741,3.2715,3.2765,3.2718,3.2755,3.2805,3.2802,3.281,3.2817,3.2835,3.2842,3.2758,3.2758,3.2758,0,3.3271,3.324,3.3177,3.3162,3.3138,3.3067,3.3062,3.303,3.2965,3.2949,3.2924,3.2856,3.2812,3.2791,3.2804,3.2785,3.2781,3.2763,3.2815,3.2821,3.2826,3.2842,3.2849,3.2763,3.2762,3.2762,3.2761,0,3.3311,3.329,3.3294,3.3237,3.3213,3.3204,3.3138,3.3122,3.3081,3.3037,3.3015,3.2961,3.2915,3.2907,3.2865,3.288,3.2867,3.283,3.2784,3.2841,3.2855,3.2861,3.277,3.2768,3.2767,3.2765,0,0,3.3425,3.3336,3.3338,3.3312,3.3246,3.3228,3.3215,3.3172,3.3159,3.3117,3.3104,3.3061,3.3026,3.2997,3.295,3.2948,3.2991,3.291,3.2908,3.2927,3.3004,3.3032,3.3041,3.296,3.2961,3.2962,3.3009,0,3.3476,3.3452,3.3396,3.3387,3.3367,3.33,3.3288,3.3246,3.3205,3.318,3.3133,3.3105,3.3061,3.3043,3.3038,3.2987,3.3005,3.2983,3.2945,3.2945,3.2962,3.3048,3.3077,3.3124,3.3013,3.3014,3.3015,0,3.3532,3.3498,3.3489,3.3426,3.3415,3.3406,3.3363,3.3341,3.3291,3.3261,3.323,3.318,3.3161,3.3121,3.3093,3.3079,3.306,3.3033,3.3033,3.3027,3.2983,3.3043,3.3137,3.3145,3.3023,3.3022,3.3021,0,3.3617,3.3567,3.3556,3.3535,3.3461,3.3457,3.3425,3.3374,3.3353,3.3315,3.33,3.3259,3.3237,3.3206,3.3145,3.3122,3.3124,3.3078,3.3098,3.3099,3.31,3.3101,3.3193,3.3089,3.3089,3.3089,3.3089,0,3.3679,3.3676,3.3593,3.3586,3.358,3.3516,3.3511,3.3473,3.3428,3.3411,3.3349,3.3334,3.3256,3.3231,3.3184,3.3168,3.3158,3.3132,3.312,3.3138,3.3141,3.3124,3.3119,3.3091,3.3091,3.309,3.309,0,3.3772,3.3716,3.3699,3.3632,3.3615,3.3614,3.3555,3.3544,3.3501,3.348,3.3471,3.3402,3.337,3.3307,3.3257,3.3225,3.3219,3.3197,3.3237,3.3229,3.3252,3.3251,3.3335,3.3343,3.3236,3.3237,3.3238,0,3.3815,3.3811,3.3745,3.3731,3.3702,3.3679,3.3658,3.3594,3.3574,3.3519,3.3515,3.3479,3.3446,3.3398,3.3341,3.3302,3.3279,3.3311,3.3272,3.3291,3.3279,3.328,3.3279,3.332,3.3321,3.3322,3.3323,0,3.3897,3.3871,3.3844,3.3808,3.3785,3.3753,3.3717,3.3708,3.3636,3.3616,3.3584,3.356,3.351,3.3474,3.3428,3.3392,3.3346,3.3337,3.3339,3.3357,3.338,3.3368,3.3261,3.3334,3.3333,3.3332,3.3332,3.3331,3.3966,3.396,3.3913,3.3886,3.3853,3.3821,3.3809,3.3765,3.3738,3.3695,3.3658,3.363,3.358,3.3513,3.3481,3.3457,3.3434,3.3437,3.3438,3.344,3.3447,3.3385,3.3448,3.3447,3.3447,3.3446,3.3446,0,3.4045,3.4013,3.3988,3.3942,3.392,3.3881,3.384,3.3823,3.38,3.3759,3.373,3.3693,3.3659,3.3601,3.3561,3.3553,3.353,3.3544,3.3544,3.3537,3.347,3.3472,3.3563,3.3563,3.3563,3.3563,3.3563,3.3563,3.4084,3.4073,3.4041,3.4012,3.3978,3.3952,3.3932,3.3902,3.387,3.3833,3.3805,3.3769,3.3721,3.3678,3.3644,3.3628,3.3616,3.3637,3.3614,3.3552,3.3541,3.3531,3.3532,3.3635,3.3635,3.3682,3.3683,3.3683]}]]